Torna al catalogo

CENTISPACE-2 S10

AttivoNavigazioneLEO
NORAD 68359·PAYLOAD·🇨🇳 China

Lanciato Mar 22, 2026 da Yellow Sea Launch Area

Loading…

Prossimi Passaggi (prossime 24 ore)

TLE

AggiornatoSource: Space-Track

Epoca: Sep 13, 2026, 18:47 UTC

1 68359U 26060K   26256.78295173  .00000003  00000-0  64562-4 0  9998
2 68359  54.9802  50.3375 0007868 280.4172  79.5919 14.28446644 25591

Traccia CENTISPACE-2 S10 in tempo reale con AllMySat

Download on the App Store